                                Ω =  45.7117    (2000.0)

   q =   0.544588 AU           i = 102.0454





    C/2005 K2 (LINEAR) 

T 2005 July 5.39373 TT                                  Nakano

q   0.5445877            (2000.0)            P               Q

                   Peri.  216.57828     -0.64976201     +0.29614985

                   Node    45.71172     -0.21591581     +0.81114260

e   1.0            Incl.  102.04540     -0.72882762     -0.50432424

From 71 observations 2005 May 19-June 13.



  上の軌道から計算された予報位置は次のとおり.北半球中緯度では,彗星は,

6月下旬以後は,観測できない.8月下旬には,明け方の空に観測可能となる

が,そのときには,彗星は,すでに18等級まで減光しているだろう.なお,図

の光度観測より計算した光度式のlogrの係数はk= 34であるが,光度予報には

k= 30を使用した.しかし,実際の光度は,大きく不確かであろう.



2005/        α  (2000) δ     △      r      Elong. Phase   m1  天文薄明終了時

 21h JST    h  m       。  ,       AU      AU      。      。     等     h。    A 。 

June 15   08 47.99  +41 08.5   0.646   0.708    43.7   97.1   9.0   +23.8  124.7

     16   08 48.26  +38 08.0   0.652   0.694    42.6   97.9   8.8   +21.7  122.2

     17   08 48.34  +35 11.2   0.660   0.681    41.5   98.5   8.6   +19.5  119.9

     18   08 48.23  +32 18.8   0.669   0.668    40.5   98.9   8.4   +17.2  117.8

     19   08 47.94  +29 31.5   0.680   0.655    39.5   99.1   8.2   +14.9  115.9

     20   08 47.50  +26 49.9   0.693   0.643    38.7   99.0   8.0   +12.5  114.2

     21   08 46.90  +24 14.5   0.706   0.631    37.9   98.7   7.8   +10.2  112.6

     22   08 46.16  +21 45.6   0.721   0.620    37.2   98.2   7.6    +7.8  111.2

     23   08 45.29  +19 23.5   0.738   0.610    36.5   97.5   7.4    +5.5  109.9

     24   08 44.28  +17 08.4   0.755   0.600    35.9   96.5   7.2    +3.2  108.8

     25   08 43.16  +15 00.3   0.773   0.591    35.4   95.4   7.1    +0.9  107.8

     26   08 41.92  +12 59.2   0.792   0.582    34.8   94.1   6.9    -1.3  107.0

     27   08 40.56  +11 05.1   0.812   0.575    34.4   92.7   6.8    -3.5  106.3

     28   08 39.11  +09 17.7   0.833   0.568    33.9   91.1   6.7    -5.6  105.6

     29   08 37.56  +07 37.1   0.854   0.562    33.5   89.3   6.6    -7.7  105.1

     30   08 35.93  +06 02.9   0.876   0.556    33.1   87.5   6.6    -9.7  104.7

July  1   08 34.21  +04 35.1   0.898   0.552    32.8   85.5   6.5   -11.7  104.4

                    m1 = 14.5 + 5 log △ + 30.0 log r

NAKANO

         **** Don't distribute anyone except personal use only ****

                (C) Copyright 2005 OAA/ComputingSection

write mail from CFAD0::NAKANO on 2005-06-16 00:45:03(JST).

 









    C/2005 K2 (LINEAR)                                                    

T 2005 July 5.39458 TT                                  Nakano

q   0.5445319            (2000.0)            P               Q

                   Peri.  216.58388     -0.64975318     +0.29622246

                   Node    45.70999     -0.21581435     +0.81116117

e   1.0            Incl.  102.04614     -0.72886553     -0.50425173

From 30 observations 2005 May 19-31.



NAKANO

         **** Don't distribute anyone except personal use only ****

                (C) Copyright 2005 OAA/ComputingSection

write mail from CFAD0::NAKANO on 2005-06-05 05:59:11(JST).

 



◎C/2005 K2の軌道と予報位置です



  5月27日に上尾の門田健一氏,31日に久万の中村彰正氏によって観測

されました.両氏の観測は,初期軌道の予報位置より27日に0゚.83,31日

に2゚.35と大きくずれていました.なお,彗星の核光度は17等級で報告さ

れていますが,門田氏のCCD全光度は13.9等,中村氏のそれは13.1等と,

予報光度より,3等級ほど明るく報告されています.



    C/2005 K2 (LINEAR)                                                    

T 2005 July 5.39322 TT                                  Nakano

q   0.5445566            (2000.0)            P               Q

                   Peri.  216.58321     -0.64969405     +0.29619329

                   Node    45.71504     -0.21589157     +0.81116216

e   1.0            Incl.  102.04346     -0.72889538     -0.50426728

From 28 observations 2005 May 19-31.

 

Date/        TT  R.A.(2000) Decl.     Delta   r     Daily motion  Mag.  Moon Age

              h    h  m       。  ,                      ,  / PA 。  m1      。

2005 June  1 12  07 34.39  +80 41.5   0.727  0.923   143.3 / 156  13.0   91  .28

           2 12  07 53.71  +78 28.0   0.713  0.906   149.3 / 161  12.8   85  .19

           3 12  08 07.11  +76 05.3   0.699  0.890   155.2 / 165  12.7   77  .12

           4 12  08 16.84  +73 34.9   0.687  0.874   160.8 / 167  12.6   70  .06

           5 12  08 24.13  +70 57.5   0.675  0.858   166.2 / 169  12.5   62  .02

           6 12  08 29.74  +68 13.9   0.665  0.843   171.2 / 171  12.4   55  .00

           7 12  08 34.14  +65 24.7   0.657  0.827   175.6 / 172  12.3   47  .00

           8 12  08 37.61  +62 30.6   0.650  0.811   179.3 / 173  12.2   41  .03

           9 12  08 40.38  +59 32.4   0.644  0.796   182.3 / 174  12.1   35  .06

          10 12  08 42.58  +56 30.9   0.640  0.781   184.4 / 175  12.0   32  .12

          11 12  08 44.33  +53 27.1   0.638  0.766   185.6 / 176  11.9   32  .19

          12 12  08 45.69  +50 21.9   0.637  0.751   185.8 / 177  11.8   35  .26

          13 12  08 46.72  +47 16.4   0.639  0.736   185.0 / 177  11.7   41  .35

          14 12  08 47.47  +44 11.5   0.641  0.722   183.2 / 178  11.6   49  .45

          15 12  08 47.97  +41 08.4   0.646  0.708   180.5 / 179  11.6   58  .54

          16 12  08 48.25  +38 07.9   0.652  0.694   176.8 / 180  11.5   69  .64

          17 12  08 48.33  +35 11.1   0.660  0.681   172.4 / 180  11.4   80  .74

          18 12  08 48.21  +32 18.7   0.669  0.668   167.3 / 181  11.4   93  .83

          19 12  08 47.93  +29 31.4   0.680  0.655   161.7 / 182  11.3  106  .90

          20 12  08 47.49  +26 49.8   0.693  0.643   155.6 / 183  11.3  119  .96

          21 12  08 46.89  +24 14.4   0.706  0.631   149.2 / 184  11.2  133  .99

          22 12  08 46.15  +21 45.5   0.721  0.620   142.6 / 185  11.2  148 1.00

          23 12  08 45.27  +19 23.4   0.738  0.610   135.9 / 186  11.2  162  .97

          24 12  08 44.27  +17 08.3   0.755  0.600   129.1 / 187  11.2  173  .92

          25 12  08 43.14  +15 00.2   0.773  0.591   122.4 / 189  11.2  166  .84

          26 12  08 41.90  +12 59.1   0.792  0.582   115.9 / 190  11.1  153  .75

          27 12  08 40.55  +11 04.9   0.812  0.575   109.4 / 191  11.1  139  .64

          28 12  08 39.10  +09 17.6   0.833  0.568   103.2 / 193  11.1  126  .53

          29 12  08 37.55  +07 37.0   0.854  0.562    97.3 / 195  11.2  112  .42

          30 12  08 35.91  +06 02.8   0.876  0.556    91.5 / 196  11.2  100  .32

     July  1 12  08 34.19  +04 35.0   0.898  0.552    86.1 / 198  11.2   87  .23

NAKANO

         **** Don't distribute anyone except personal use only ****

                (C) Copyright 2005 OAA/ComputingSection

write mail from CFAD0::NAKANO on 2005-06-04 04:56:14(JST).

 

戻ります。